Regional Weather Roundup
Issued by NWS

Home | Current Version | Previous Version | Graphics & Text | Print | Product List | Glossary On
Versions: 1 2 3 4 5 6 7 8 9 10 11 12 13 14 15 16 17 18 19 20 21 22 23 24 25 26 27 28 29 30 31 32 33 34 35 36 37 38 39 40 41 42 43 44 45 46 47 48 49 50
000
ASUS43 KMPX 272101
RWRMN
WEATHER ROUNDUP FOR MINNESOTA
NATIONAL WEATHER SERVICE TWIN CITIES/CHANHASSEN MN
400 PM CDT TUE JUN 27 2017


NOTE: "FAIR" INDICATES FEW OR NO CLOUDS BELOW 12,000 FEET WITH NO
SIGNIFICANT WEATHER AND/OR OBSTRUCTIONS TO VISIBILITY. N/A MEANS
CURRENT SKY AND/OR WEATHER CONDITIONS ARE NOT AVAILABLE.

MNZ060>063-068>070-272200-
   Twin Cities Metro

CITY           SKY/WX    TMP DP  RH WIND       PRES   REMARKS
TWIN CITIES    CLOUDY    75  42  30 S13       29.93F
ST PAUL        MOSUNNY   75  45  34 S14       29.93F
CRYSTAL        CLOUDY    74  40  29 S15G21    29.91F
BLAINE         PTSUNNY   75  43  31 S9        29.93F
LAKEVILLE      CLOUDY    73  43  33 S10       29.94F
EDEN PRAIRIE   CLOUDY    75  42  30 S14G21    29.92F
SOUTH ST PAUL  CLOUDY    75  40  28 S13G18    29.93F
LAKE ELMO      FAIR      73  45  35 S13       29.95F
$$
MNZ001>005-007-008-013>017-022>024-027-028-272200-
   Northwest Minnesota

CITY           SKY/WX    TMP DP  RH WIND       PRES   REMARKS
BEMIDJI        MOSUNNY   74  44  34 S16       29.82S
HALLOCK        MOSUNNY   79  46  31 S17G26    29.69F
ROSEAU         MOSUNNY   77  48  36 SW13G20   29.76F
WARROAD        MOSUNNY   75  48  38 S10G16    29.77F
CROOKSTON      SUNNY     77  43  29 S24G30    29.74F
FOSSTON        SUNNY     72  45  37 S18       29.78F
DETROIT LAKES  SUNNY     72  45  37 S20G25    29.80F
MOORHEAD       CLOUDY    73  41  31 S18G32    29.75F
PARK RAPIDS    MOSUNNY   76  42  29 S17G26    29.82F
MAHNOMEN       FAIR      73  46  38 S16G22    29.78S
$$
MNZ006-009>011-018-025>026-272200-
   North Central Minnesota

CITY           SKY/WX    TMP DP  RH WIND       PRES   REMARKS
BAUDETTE       PTSUNNY   73  47  39 S15       29.80F
FLAG ISLAND    MOSUNNY   70  46  43 SE10      29.77F
INTL FALLS     CLOUDY    72  45  37 SW9G18    29.81F
WASKISH        MOSUNNY   73  46  38 S6G16     29.80F
BIG FORK       CLOUDY    72  48  43 SW8G18    29.84F
LONGVILLE      MOSUNNY   73  45  35 S13G22    29.84F
GRAND RAPIDS   CLOUDY    73  45  36 S14       29.87F
CRANE LAKE     SUNNY     72  43  35 S9        29.86S
ORR            SUNNY     73  41  31 S13       29.82F
COOK           MOSUNNY   72  45  37 S14G21    29.86F
WALKER         FAIR      72  43  35 S18G26    29.82F
$$
MNZ012-019>021-037-272200-
   Northeast Minnesota

CITY           SKY/WX    TMP DP  RH WIND       PRES   REMARKS
DULUTH         SUNNY     73  45  36 W13G23    29.90F
HIBBING        SUNNY     71  43  36 SW15G22   29.87F
EVELETH        SUNNY     73  32  22 SW16      29.88F
DULUTH HARBOR  MOSUNNY   75  46  35 SW18      29.88F
TWO HARBORS    MOSUNNY   75  54  46 S13G20    29.87F
SILVER BAY     MOSUNNY   73  45  35 SW17G23   29.87F
GRAND MARAIS     N/A     57  47  69 W9        29.88F
G MARAIS ARPRT SUNNY     66  39  37 S10G18    29.91F
$$
MNZ029>031-032-039>041-046>048-054>057-064-272200-
   West Central Minnesota

CITY           SKY/WX    TMP DP  RH WIND       PRES   REMARKS
FERGUS FALLS   MOSUNNY   72  45  37 SE22G31   29.73F
WHEATON        CLOUDY    75  41  29 SE13G20   29.79F
MORRIS         CLOUDY    75  45  33 S14       29.81F
ALEXANDRIA     CLOUDY    72  43  35 S17       29.87F
ELBOW LAKE     PTSUNNY   70  43  37 S26       29.78F
WADENA         SUNNY     72  45  37 S22G30    29.84F
GLENWOOD       CLOUDY    72  43  35 S20       29.86F
APPLETON       CLOUDY    79  43  27 S9G20     29.80F
BENSON         CLOUDY    73  45  35 S13G21    29.83F
ORTONVILLE     CLOUDY    77  45  31 S16G28    29.78F
MADISON        CLOUDY    79  45  29 S23G31    29.79F
WILLMAR        FAIR      75  45  33 S8        29.88F
$$
MNZ033>034-036-042>043-049>051-058-059-272200-
   Central Minnesota

CITY           SKY/WX    TMP DP  RH WIND       PRES   REMARKS
ST CLOUD       CLOUDY    73  42  32 S13G23    29.90F
SAUK CENTRE    FAIR      73  43  34 S18G25    29.87F
PAYNESVILLE    PTSUNNY   75  40  29 S9G18     29.89F
AITKIN         MOSUNNY   70  45  40 S8G21     29.87F
PINE RIVER     CLOUDY    72  46  40 S14G22    29.88F
BRAINERD       MOSUNNY   72  43  35 S16G25    29.87F
STAPLES        PTSUNNY   73  39  29 S16G24    29.85F
LONG PRAIRIE   FAIR      72  43  35 SE20G26   29.87F
LITTLE FALLS   CLOUDY    75  37  25 S18G28    29.88F
LITCHFIELD     CLOUDY    73  45  35 S6        29.90F
BUFFALO        CLOUDY    73  41  31 S12G20    29.93F
MAPLE LAKE     CLOUDY    75  46  36 S7        29.92F
HUTCHINSON     MOSUNNY   74  46  36 S8G18     29.92F
$$
MNZ037-044-045-052-053-272200-
   East Central Minnesota

CITY           SKY/WX    TMP DP  RH WIND       PRES   REMARKS
PRINCETON      CLOUDY    75  43  31 S13       29.91F
MORA           MOSUNNY   73  43  33 S15       29.93F
CAMBRIDGE      MOSUNNY   79  54  41 S12       29.90F
RUSH CITY      SUNNY     73  45  35 SW13G18   29.92F
MOOSE LAKE     SUNNY     72  45  37 S14G20    29.88F
HINCKLEY       FAIR      73  45  35 S14G22    29.91F
CLOQUET        SUNNY     72  39  30 S15       29.90F
MCGREGOR       SUNNY     72  43  35 S12       29.89F
$$
MNZ071>073-080-081-089-090-097-098-272200-
   Southwest Minnesota

CITY           SKY/WX    TMP DP  RH WIND       PRES   REMARKS
MONTEVIDEO     MOSUNNY   77  45  31 SW12G22   29.83F
GRANITE FALLS  MOSUNNY   81  46  28 SE20G29   29.86F
CANBY          CLOUDY    79  43  27 S15G30    29.82F
MARSHALL       SUNNY     79  46  31 S21G30    29.84F
REDWOOD FALLS  CLOUDY    80  42  25 S25G32    29.87F
OLIVIA         CLOUDY    73  43  33 S17       29.87F
PIPESTONE      SUNNY     79  43  27 S21       29.84F
WINDOM         SUNNY     79  41  25 S17G28    29.91F
WORTHINGTON    SUNNY     76  46  34 S18G28    29.90F
JACKSON        SUNNY     75  41  29 S17G23    29.93F
TRACY          SUNNY     78  45  31 S15G26    29.87F
SLAYTON        SUNNY     76  43  31 S21G29    29.90F
$$
MNZ065>067-074>077-082>085-091>093-272200-
   South Central Minnesota

CITY           SKY/WX    TMP DP  RH WIND       PRES   REMARKS
MANKATO        SUNNY     76  44  32 S14G23    29.93F
NEW ULM        CLOUDY    75  43  31 S16       29.91F
ST JAMES       MOSUNNY   75  43  31 SE20      29.92F
FAIRMONT       SUNNY     76  44  32 S17G26    29.93F
GLENCOE        CLOUDY    76  46  34 S9G18     29.91F
FARIBAULT      MOSUNNY   75  43  31 S12G17    29.95F
OWATONNA       SUNNY     75  45  33 S16G23    29.96F
WASECA         SUNNY     73  43  33 S15G23    29.96F
ALBERT LEA     MOSUNNY   75  39  27 S13G18    29.97F
$$
MNZ078>079-086>088-094>096-272200-
   Southeast Minnesota

CITY           SKY/WX    TMP DP  RH WIND       PRES   REMARKS
ROCHESTER      MOSUNNY   74  43  32 S18       29.99F
RED WING       MOSUNNY   77  37  24 S13       29.95F
STANTON        CLOUDY    75  40  27 SW9G17    29.94F
DODGE CENTER   SUNNY     75  39  27 S18       29.98F
WINONA         SUNNY     75  45  33 SW9       30.00F
AUSTIN         SUNNY     73  43  33 S13G20    29.98F
PRESTON        CLOUDY    73  44  36 SW10      30.01F
$$
ABBREVIATIONS USED IN REMARKS
   TC - TEMPERATURES IN CELSIUS
  WCI - WIND CHILL INDEX
   HX - HEAT INDEX
  VSB - VISIBILITY
$$




USA.gov is the U.S. government's official web portal to all federal, state and local government web resources and services.